| time (UTC) | temp C | wind direction | speed KPH | gust KPH | rain 1hr cm | rain 24hr cm | rain mn cm | humidity % | barometer mb |
| 20260510164051 | 21 | 251 | 9.7 | 14.5 | 0.00 | 0.00 | 0.00 | 51 | 1018.3 |
| 20260510163554 | 21 | 266 | 4.8 | 9.7 | 0.00 | 0.00 | 0.00 | 51 | 1018.1 |
| 20260510163051 | 21 | 336 | 8.0 | 11.3 | 0.00 | 0.00 | 0.00 | 50 | 1018.1 |
| 20260510162553 | 21 | 261 | 9.7 | 14.5 | 0.00 | 0.00 | 0.00 | 51 | 1018.2 |
| 20260510162055 | 21 | 309 | 9.7 | 14.5 | 0.00 | 0.00 | 0.00 | 50 | 1018.3 |
| 20260510161553 | 21 | 266 | 4.8 | 8.0 | 0.00 | 0.00 | 0.00 | 51 | 1018.2 |
| 20260510161053 | 21 | 264 | 11.3 | 17.7 | 0.00 | 0.00 | 0.00 | 51 | 1018.3 |
| 20260510160552 | 21 | 254 | 9.7 | 12.9 | 0.00 | 0.00 | 0.00 | 49 | 1018.1 |
| 20260510160054 | 21 | 302 | 6.4 | 9.7 | 0.00 | 0.00 | 0.00 | 49 | 1018.2 |
| 20260510155552 | 21 | 261 | 11.3 | 17.7 | 0.00 | 0.00 | 0.00 | 49 | 1018.2 |
| 20260510155052 | 21 | 244 | 4.8 | 9.7 | 0.00 | 0.00 | 0.00 | 51 | 1018.1 |
| 20260510154553 | 20 | 39 | 1.6 | 3.2 | 0.00 | 0.00 | 0.00 | 52 | 1018.1 |
| 20260510154052 | 20 | 266 | 11.3 | 17.7 | 0.00 | 0.00 | 0.00 | 52 | 1018.1 |
| 20260510153106 | 20 | 271 | 3.2 | 4.8 | 0.00 | 0.00 | 0.00 | 52 | 1018.1 |
| 20260510152552 | 20 | 243 | 9.7 | 14.5 | 0.00 | 0.00 | 0.00 | 53 | 1018.1 |
| 20260510152052 | 20 | 248 | 4.8 | 11.3 | 0.00 | 0.00 | 0.00 | 53 | 1018.1 |
| 20260510151551 | 20 | 249 | 9.7 | 14.5 | 0.00 | 0.00 | 0.00 | 52 | 1018.1 |
| 20260510151051 | 20 | 268 | 8.0 | 9.7 | 0.00 | 0.00 | 0.00 | 52 | 1017.9 |
| 20260510150553 | 20 | 248 | 6.4 | 11.3 | 0.00 | 0.00 | 0.00 | 52 | 1017.9 |
| 20260510150053 | 20 | 260 | 9.7 | 17.7 | 0.00 | 0.00 | 0.00 | 53 | 1017.9 |
| 20260510145552 | 20 | 291 | 6.4 | 8.0 | 0.00 | 0.00 | 0.00 | 53 | 1017.8 |
| 20260510145052 | 19 | 276 | 4.8 | 11.3 | 0.00 | 0.00 | 0.00 | 53 | 1017.8 |
| 20260510144551 | 19 | 261 | 6.4 | 11.3 | 0.00 | 0.00 | 0.00 | 54 | 1017.8 |
| 20260510144052 | 19 | 268 | 8.0 | 14.5 | 0.00 | 0.00 | 0.00 | 54 | 1017.9 |
| 20260510143553 | 19 | 248 | 9.7 | 12.9 | 0.00 | 0.00 | 0.00 | 54 | 1017.8 |
| 20260510143051 | 19 | 242 | 4.8 | 9.7 | 0.00 | 0.00 | 0.00 | 56 | 1017.8 |
| 20260510142551 | 18 | 252 | 8.0 | 16.1 | 0.00 | 0.00 | 0.00 | 57 | 1017.8 |
| 20260510142056 | 18 | 227 | 6.4 | 11.3 | 0.00 | 0.00 | 0.00 | 57 | 1017.7 |
| 20260510141555 | 18 | 264 | 6.4 | 11.3 | 0.00 | 0.00 | 0.00 | 57 | 1017.6 |
| 20260510141051 | 18 | 264 | 6.4 | 11.3 | 0.00 | 0.00 | 0.00 | 58 | 1017.7 |
| 20260510140552 | 18 | 261 | 8.0 | 14.5 | 0.00 | 0.00 | 0.00 | 58 | 1017.6 |
| 20260510140053 | 18 | 285 | 6.4 | 9.7 | 0.00 | 0.00 | 0.00 | 60 | 1017.6 |
| 20260510135552 | 17 | 244 | 4.8 | 6.4 | 0.00 | 0.00 | 0.00 | 60 | 1017.6 |
| 20260510135052 | 17 | 249 | 6.4 | 11.3 | 0.00 | 0.00 | 0.00 | 60 | 1017.6 |
| 20260510134553 | 17 | 239 | 6.4 | 9.7 | 0.00 | 0.00 | 0.00 | 61 | 1017.6 |
| 20260510134052 | 17 | 293 | 6.4 | 8.0 | 0.00 | 0.00 | 0.00 | 61 | 1017.6 |
| 20260510133552 | 17 | 229 | 6.4 | 9.7 | 0.00 | 0.00 | 0.00 | 62 | 1017.6 |
| 20260510133053 | 17 | 238 | 6.4 | 9.7 | 0.00 | 0.00 | 0.00 | 62 | 1017.6 |
| 20260510132551 | 16 | 253 | 6.4 | 11.3 | 0.00 | 0.00 | 0.00 | 63 | 1017.5 |
| 20260510132053 | 16 | 206 | 3.2 | 6.4 | 0.00 | 0.00 | 0.00 | 64 | 1017.6 |
| 20260510131552 | 16 | 254 | 6.4 | 8.0 | 0.00 | 0.00 | 0.00 | 64 | 1017.7 |
| 20260510131053 | 16 | 243 | 6.4 | 6.4 | 0.00 | 0.00 | 0.00 | 65 | 1017.7 |
| 20260510130553 | 16 | 263 | 4.8 | 6.4 | 0.00 | 0.00 | 0.00 | 65 | 1017.6 |
| 20260510130053 | 16 | 248 | 6.4 | 9.7 | 0.00 | 0.00 | 0.00 | 65 | 1017.5 |
| 20260510125552 | 16 | 257 | 4.8 | 6.4 | 0.00 | 0.00 | 0.00 | 65 | 1017.5 |
| 20260510125054 | 15 | 229 | 8.0 | 11.3 | 0.00 | 0.00 | 0.00 | 65 | 1017.5 |
| 20260510124551 | 15 | 258 | 6.4 | 8.0 | 0.00 | 0.00 | 0.00 | 67 | 1017.5 |
| 20260510124051 | 15 | 258 | 6.4 | 8.0 | 0.00 | 0.00 | 0.00 | 67 | 1017.5 |
| 20260510123552 | 15 | 263 | 4.8 | 6.4 | 0.00 | 0.00 | 0.00 | 69 | 1017.4 |
| 20260510123053 | 15 | 273 | 6.4 | 8.0 | 0.00 | 0.00 | 0.00 | 69 | 1017.3 |
| 20260510122554 | 14 | 251 | 4.8 | 6.4 | 0.00 | 0.00 | 0.00 | 72 | 1017.3 |
| 20260510122052 | 13 | 266 | 3.2 | 3.2 | 0.00 | 0.00 | 0.00 | 73 | 1017.3 |
| 20260510121552 | 13 | 261 | 1.6 | 3.2 | 0.00 | 0.00 | 0.00 | 75 | 1017.2 |
| 20260510121051 | 13 | 232 | 4.8 | 4.8 | 0.00 | 0.00 | 0.00 | 75 | 1017.1 |
| 20260510120554 | 13 | 255 | 3.2 | 3.2 | 0.00 | 0.00 | 0.00 | 76 | 1017.0 |
| 20260510120051 | 12 | 277 | 0.0 | 1.6 | 0.00 | 0.00 | 0.00 | 78 | 1016.9 |
| 20260510115554 | 12 | 259 | 0.0 | 1.6 | 0.00 | 0.00 | 0.00 | 79 | 1016.9 |
| 20260510115051 | 12 | 198 | 1.6 | 3.2 | 0.00 | 0.00 | 0.00 | 78 | 1016.9 |
| 20260510114551 | 12 | 179 | 0.0 | 1.6 | 0.00 | 0.00 | 0.00 | 79 | 1016.9 |
| 20260510114052 | 12 | 296 | 0.0 | 0.0 | 0.00 | 0.00 | 0.00 | 78 | 1016.8 |
| 20260510113551 | 12 | 236 | 1.6 | 3.2 | 0.00 | 0.00 | 0.00 | 78 | 1016.7 |
| 20260510113055 | 12 | 277 | 3.2 | 3.2 | 0.00 | 0.00 | 0.00 | 78 | 1016.8 |
| 20260510112553 | 12 | 239 | 3.2 | 3.2 | 0.00 | 0.00 | 0.00 | 78 | 1016.8 |
| 20260510112054 | 12 | 263 | 1.6 | 3.2 | 0.00 | 0.00 | 0.00 | 79 | 1016.8 |
| 20260510111554 | 11 | 279 | 0.0 | 1.6 | 0.00 | 0.00 | 0.00 | 80 | 1016.7 |
| 20260510111053 | 11 | 265 | 3.2 | 3.2 | 0.00 | 0.00 | 0.00 | 82 | 1016.7 |
| 20260510110552 | 11 | 249 | 3.2 | 3.2 | 0.00 | 0.00 | 0.00 | 83 | 1016.5 |
| 20260510110052 | 10 | 264 | 3.2 | 3.2 | 0.00 | 0.00 | 0.00 | 86 | 1016.3 |
| 20260510105552 | 9 | 251 | 3.2 | 3.2 | 0.00 | 0.00 | 0.00 | 88 | 1016.3 |
| 20260510105052 | 9 | 266 | 3.2 | 3.2 | 0.00 | 0.00 | 0.00 | 91 | 1016.1 |
| 20260510104555 | 8 | 261 | 3.2 | 3.2 | 0.00 | 0.00 | 0.00 | 92 | 1016.1 |
| 20260510104051 | 8 | 268 | 1.6 | 1.6 | 0.00 | 0.00 | 0.00 | 93 | 1016.0 |
| 20260510103551 | 8 | 267 | 3.2 | 3.2 | 0.00 | 0.00 | 0.00 | 93 | 1016.0 |
| 20260510103052 | 8 | 276 | 1.6 | 3.2 | 0.00 | 0.00 | 0.00 | 93 | 1015.9 |
| 20260510102552 | 8 | 276 | 3.2 | 3.2 | 0.00 | 0.00 | 0.00 | 93 | 1015.8 |
| 20260510102051 | 8 | 277 | 3.2 | 3.2 | 0.00 | 0.00 | 0.00 | 92 | 1015.7 |
| 20260510101556 | 9 | 271 | 1.6 | 1.6 | 0.00 | 0.00 | 0.00 | 92 | 1015.7 |
| 20260510101054 | 9 | 264 | 1.6 | 3.2 | 0.00 | 0.00 | 0.00 | 91 | 1015.7 |
| 20260510100551 | 9 | 266 | 3.2 | 3.2 | 0.00 | 0.00 | 0.00 | 89 | 1015.7 |
| 20260510100051 | 10 | 272 | 1.6 | 3.2 | 0.00 | 0.00 | 0.00 | 89 | 1015.7 |
| 20260510095551 | 10 | 281 | 1.6 | 1.6 | 0.00 | 0.00 | 0.00 | 88 | 1015.7 |
| 20260510095051 | 10 | 292 | 1.6 | 3.2 | 0.00 | 0.00 | 0.00 | 89 | 1015.7 |
| 20260510094555 | 10 | 288 | 3.2 | 3.2 | 0.00 | 0.00 | 0.00 | 89 | 1015.6 |
| 20260510094052 | 10 | 283 | 3.2 | 3.2 | 0.00 | 0.00 | 0.00 | 90 | 1015.6 |
| 20260510093551 | 10 | 286 | 3.2 | 3.2 | 0.00 | 0.00 | 0.00 | 90 | 1015.6 |
| 20260510093052 | 9 | 276 | 3.2 | 3.2 | 0.00 | 0.00 | 0.00 | 91 | 1015.6 |
| 20260510092551 | 9 | 286 | 3.2 | 3.2 | 0.00 | 0.00 | 0.00 | 91 | 1015.6 |
| 20260510092051 | 9 | 276 | 1.6 | 3.2 | 0.00 | 0.00 | 0.00 | 92 | 1015.5 |
| 20260510091553 | 8 | 274 | 3.2 | 3.2 | 0.00 | 0.00 | 0.00 | 92 | 1015.5 |
| 20260510091052 | 8 | 270 | 3.2 | 3.2 | 0.00 | 0.00 | 0.00 | 93 | 1015.5 |
| 20260510090552 | 8 | 282 | 3.2 | 3.2 | 0.00 | 0.00 | 0.00 | 93 | 1015.4 |
| 20260510090052 | 8 | 273 | 3.2 | 3.2 | 0.00 | 0.00 | 0.00 | 94 | 1015.2 |
| 20260510085551 | 7 | 278 | 3.2 | 3.2 | 0.00 | 0.00 | 0.00 | 94 | 1015.1 |
| 20260510085051 | 7 | 274 | 3.2 | 3.2 | 0.00 | 0.00 | 0.00 | 94 | 1015.1 |
| 20260510084552 | 7 | 284 | 3.2 | 3.2 | 0.00 | 0.00 | 0.00 | 94 | 1015.1 |
| 20260510084052 | 8 | 289 | 3.2 | 3.2 | 0.00 | 0.00 | 0.00 | 94 | 1015.1 |
| 20260510083552 | 8 | 295 | 3.2 | 3.2 | 0.00 | 0.00 | 0.00 | 94 | 1015.1 |
| 20260510083051 | 8 | 284 | 3.2 | 3.2 | 0.00 | 0.00 | 0.00 | 94 | 1015.0 |
| 20260510082552 | 8 | 294 | 3.2 | 3.2 | 0.00 | 0.00 | 0.00 | 94 | 1015.0 |
| 20260510082052 | 8 | 277 | 3.2 | 3.2 | 0.00 | 0.00 | 0.00 | 94 | 1015.0 |
| 20260510081552 | 7 | 298 | 3.2 | 3.2 | 0.00 | 0.00 | 0.00 | 94 | 1015.0 |
| 20260510081051 | 7 | 299 | 3.2 | 4.8 | 0.00 | 0.00 | 0.00 | 94 | 1014.9 |
| 20260510080552 | 8 | 277 | 3.2 | 3.2 | 0.00 | 0.00 | 0.00 | 94 | 1014.9 |
| 20260510080052 | 8 | 272 | 3.2 | 3.2 | 0.00 | 0.00 | 0.00 | 93 | 1014.8 |
| 20260510075552 | 8 | 275 | 3.2 | 4.8 | 0.00 | 0.00 | 0.00 | 93 | 1014.8 |
| 20260510075051 | 8 | 283 | 3.2 | 3.2 | 0.00 | 0.00 | 0.00 | 94 | 1014.7 |
| 20260510074552 | 7 | 285 | 1.6 | 3.2 | 0.00 | 0.00 | 0.00 | 94 | 1014.6 |
| 20260510074051 | 7 | 278 | 3.2 | 4.8 | 0.00 | 0.00 | 0.00 | 94 | 1014.6 |
| 20260510073552 | 7 | 280 | 3.2 | 3.2 | 0.00 | 0.00 | 0.00 | 93 | 1014.6 |
| 20260510073052 | 8 | 266 | 1.6 | 3.2 | 0.00 | 0.00 | 0.00 | 93 | 1014.6 |
| 20260510072551 | 8 | 286 | 3.2 | 3.2 | 0.00 | 0.00 | 0.00 | 94 | 1014.6 |
| 20260510072052 | 7 | 283 | 3.2 | 3.2 | 0.00 | 0.00 | 0.00 | 94 | 1014.6 |
| 20260510071552 | 7 | 271 | 1.6 | 1.6 | 0.00 | 0.00 | 0.00 | 93 | 1014.6 |
| 20260510071054 | 8 | 271 | 1.6 | 3.2 | 0.00 | 0.00 | 0.00 | 92 | 1014.6 |
| 20260510070553 | 8 | 278 | 3.2 | 3.2 | 0.00 | 0.00 | 0.00 | 92 | 1014.6 |
| 20260510070054 | 8 | 292 | 3.2 | 3.2 | 0.00 | 0.00 | 0.00 | 93 | 1014.6 |
| 20260510065552 | 7 | 284 | 3.2 | 3.2 | 0.00 | 0.00 | 0.00 | 93 | 1014.6 |
| 20260510065052 | 7 | 281 | 3.2 | 3.2 | 0.00 | 0.00 | 0.00 | 94 | 1014.6 |
| 20260510064551 | 7 | 272 | 1.6 | 3.2 | 0.00 | 0.00 | 0.00 | 93 | 1014.6 |
| 20260510064052 | 8 | 245 | 1.6 | 3.2 | 0.00 | 0.00 | 0.00 | 91 | 1014.6 |
| 20260510063552 | 8 | 278 | 1.6 | 3.2 | 0.00 | 0.00 | 0.00 | 92 | 1014.6 |
| 20260510063053 | 8 | 283 | 3.2 | 4.8 | 0.00 | 0.00 | 0.00 | 92 | 1014.6 |
| 20260510062551 | 8 | 296 | 3.2 | 4.8 | 0.00 | 0.00 | 0.00 | 92 | 1014.6 |
| 20260510062051 | 8 | 284 | 3.2 | 4.8 | 0.00 | 0.00 | 0.00 | 92 | 1014.6 |
| 20260510061551 | 8 | 285 | 4.8 | 6.4 | 0.00 | 0.00 | 0.00 | 92 | 1014.6 |
| 20260510061052 | 8 | 280 | 3.2 | 6.4 | 0.00 | 0.00 | 0.00 | 92 | 1014.6 |
| 20260510060551 | 8 | 272 | 3.2 | 4.8 | 0.00 | 0.00 | 0.00 | 91 | 1014.5 |
| 20260510060054 | 8 | 266 | 3.2 | 4.8 | 0.00 | 0.00 | 0.00 | 91 | 1014.5 |
| 20260510055551 | 8 | 273 | 0.0 | 1.6 | 0.00 | 0.00 | 0.00 | 91 | 1014.5 |
| 20260510055051 | 8 | 270 | 1.6 | 3.2 | 0.00 | 0.00 | 0.00 | 91 | 1014.5 |
| 20260510054551 | 8 | 289 | 0.0 | 3.2 | 0.00 | 0.00 | 0.00 | 91 | 1014.5 |
| 20260510054051 | 8 | 281 | 1.6 | 3.2 | 0.00 | 0.00 | 0.00 | 91 | 1014.5 |
| 20260510053551 | 8 | 278 | 1.6 | 3.2 | 0.00 | 0.00 | 0.00 | 91 | 1014.6 |
| 20260510053051 | 8 | 282 | 1.6 | 3.2 | 0.00 | 0.00 | 0.00 | 91 | 1014.6 |
| 20260510052553 | 8 | 278 | 3.2 | 3.2 | 0.00 | 0.00 | 0.00 | 91 | 1014.6 |
| 20260510052051 | 8 | 291 | 3.2 | 3.2 | 0.00 | 0.00 | 0.00 | 90 | 1014.7 |
| 20260510051557 | 8 | 281 | 3.2 | 3.2 | 0.00 | 0.00 | 0.00 | 89 | 1014.7 |
| 20260510051052 | 8 | 285 | 3.2 | 3.2 | 0.00 | 0.00 | 0.00 | 89 | 1014.7 |
| 20260510050551 | 8 | 282 | 3.2 | 3.2 | 0.00 | 0.00 | 0.00 | 88 | 1014.7 |
| 20260510050051 | 8 | 280 | 3.2 | 3.2 | 0.00 | 0.00 | 0.00 | 88 | 1014.7 |
| 20260510045552 | 8 | 274 | 0.0 | 1.6 | 0.00 | 0.00 | 0.00 | 88 | 1014.7 |
| 20260510045053 | 8 | 275 | 1.6 | 3.2 | 0.00 | 0.00 | 0.00 | 87 | 1014.7 |
| 20260510044551 | 8 | 280 | 1.6 | 1.6 | 0.00 | 0.00 | 0.00 | 88 | 1014.6 |
| 20260510044053 | 8 | 273 | 1.6 | 3.2 | 0.00 | 0.00 | 0.00 | 88 | 1014.6 |
| 20260510043551 | 8 | 269 | 1.6 | 3.2 | 0.00 | 0.00 | 0.00 | 88 | 1014.6 |
| 20260510043052 | 8 | 274 | 0.0 | 1.6 | 0.00 | 0.00 | 0.00 | 87 | 1014.5 |
| 20260510042551 | 9 | 273 | 1.6 | 3.2 | 0.00 | 0.00 | 0.00 | 87 | 1014.6 |
| 20260510042051 | 9 | 274 | 3.2 | 3.2 | 0.00 | 0.00 | 0.00 | 86 | 1014.6 |
| 20260510041552 | 10 | 290 | 1.6 | 3.2 | 0.00 | 0.00 | 0.00 | 85 | 1014.7 |
| 20260510041054 | 10 | 282 | 3.2 | 4.8 | 0.00 | 0.00 | 0.00 | 85 | 1014.7 |
| 20260510040552 | 10 | 272 | 3.2 | 3.2 | 0.00 | 0.00 | 0.00 | 85 | 1014.6 |
| 20260510040052 | 10 | 268 | 1.6 | 3.2 | 0.00 | 0.00 | 0.00 | 85 | 1014.5 |
| 20260510035553 | 10 | 274 | 1.6 | 3.2 | 0.00 | 0.00 | 0.00 | 85 | 1014.5 |
| 20260510035051 | 10 | 261 | 1.6 | 3.2 | 0.00 | 0.00 | 0.00 | 84 | 1014.5 |
| 20260510034552 | 9 | 248 | 1.6 | 3.2 | 0.00 | 0.00 | 0.00 | 85 | 1014.5 |
| 20260510034051 | 9 | 239 | 0.0 | 1.6 | 0.00 | 0.00 | 0.00 | 85 | 1014.5 |
| 20260510033553 | 9 | 268 | 0.0 | 0.0 | 0.00 | 0.00 | 0.00 | 84 | 1014.5 |
| 20260510033052 | 10 | 248 | 0.0 | 1.6 | 0.00 | 0.00 | 0.00 | 84 | 1014.4 |
| 20260510032555 | 10 | 258 | 0.0 | 1.6 | 0.00 | 0.00 | 0.00 | 84 | 1014.4 |
| 20260510032054 | 10 | 241 | 1.6 | 1.6 | 0.00 | 0.00 | 0.00 | 84 | 1014.4 |
| 20260510031552 | 10 | 243 | 0.0 | 1.6 | 0.00 | 0.00 | 0.00 | 83 | 1014.4 |
| 20260510031054 | 10 | 242 | 1.6 | 3.2 | 0.00 | 0.00 | 0.00 | 83 | 1014.4 |
| 20260510030555 | 10 | 240 | 1.6 | 1.6 | 0.00 | 0.00 | 0.00 | 83 | 1014.4 |
| 20260510030053 | 10 | 236 | 1.6 | 3.2 | 0.00 | 0.00 | 0.00 | 82 | 1014.4 |
| 20260510025552 | 10 | 250 | 1.6 | 3.2 | 0.00 | 0.00 | 0.00 | 82 | 1014.4 |
| 20260510025052 | 10 | 233 | 1.6 | 3.2 | 0.00 | 0.00 | 0.00 | 80 | 1014.4 |
| 20260510024551 | 11 | 267 | 3.2 | 3.2 | 0.00 | 0.00 | 0.00 | 81 | 1014.4 |
| 20260510024051 | 11 | 255 | 1.6 | 3.2 | 0.00 | 0.00 | 0.00 | 80 | 1014.4 |
| 20260510023551 | 11 | 287 | 3.2 | 3.2 | 0.00 | 0.00 | 0.00 | 79 | 1014.5 |
| 20260510023055 | 11 | 262 | 3.2 | 3.2 | 0.00 | 0.00 | 0.00 | 80 | 1014.4 |
| 20260510022552 | 11 | 271 | 3.2 | 3.2 | 0.00 | 0.00 | 0.00 | 79 | 1014.3 |
| 20260510022054 | 11 | 282 | 1.6 | 3.2 | 0.00 | 0.00 | 0.00 | 78 | 1014.3 |
| 20260510021553 | 11 | 286 | 3.2 | 3.2 | 0.00 | 0.00 | 0.00 | 78 | 1014.2 |
| 20260510021052 | 11 | 286 | 3.2 | 4.8 | 0.00 | 0.00 | 0.00 | 78 | 1014.3 |
| 20260510020552 | 11 | 268 | 3.2 | 3.2 | 0.00 | 0.00 | 0.00 | 78 | 1014.1 |
| 20260510020052 | 11 | 281 | 3.2 | 3.2 | 0.00 | 0.00 | 0.00 | 77 | 1014.0 |
| 20260510015552 | 11 | 279 | 1.6 | 3.2 | 0.00 | 0.00 | 0.00 | 77 | 1013.8 |
| 20260510015053 | 12 | 267 | 0.0 | 1.6 | 0.00 | 0.00 | 0.00 | 76 | 1013.7 |
| 20260510014551 | 12 | 276 | 1.6 | 1.6 | 0.00 | 0.00 | 0.00 | 75 | 1013.7 |
| 20260510014052 | 12 | 279 | 1.6 | 1.6 | 0.00 | 0.00 | 0.00 | 75 | 1013.6 |
| 20260510013551 | 12 | 274 | 0.0 | 1.6 | 0.00 | 0.00 | 0.00 | 75 | 1013.5 |
| 20260510013052 | 12 | 269 | 0.0 | 1.6 | 0.00 | 0.00 | 0.00 | 75 | 1013.4 |
| 20260510012551 | 12 | 266 | 0.0 | 1.6 | 0.00 | 0.00 | 0.00 | 75 | 1013.4 |
| 20260510012051 | 12 | 0 | 0.0 | 0.0 | 0.00 | 0.00 | 0.00 | 75 | 1013.3 |
| 20260510011552 | 12 | 0 | 0.0 | 0.0 | 0.00 | 0.00 | 0.00 | 75 | 1013.2 |
| 20260510011051 | 12 | 260 | 0.0 | 1.6 | 0.00 | 0.00 | 0.00 | 73 | 1013.1 |
| 20260510010551 | 12 | 293 | 1.6 | 1.6 | 0.00 | 0.00 | 0.00 | 73 | 1013.2 |
| 20260510010053 | 12 | 283 | 1.6 | 3.2 | 0.00 | 0.00 | 0.00 | 73 | 1013.1 |
| 20260510005551 | 13 | 273 | 0.0 | 1.6 | 0.00 | 0.00 | 0.00 | 72 | 1013.0 |
| 20260510005051 | 13 | 0 | 0.0 | 0.0 | 0.00 | 0.00 | 0.00 | 71 | 1013.0 |
| 20260510004552 | 13 | 249 | 0.0 | 1.6 | 0.00 | 0.00 | 0.00 | 70 | 1013.0 |
| 20260510004051 | 13 | 0 | 0.0 | 0.0 | 0.00 | 0.00 | 0.00 | 70 | 1012.9 |
| 20260510003552 | 14 | 0 | 0.0 | 0.0 | 0.00 | 0.00 | 0.00 | 69 | 1012.8 |
| 20260510003055 | 14 | 0 | 0.0 | 0.0 | 0.00 | 0.00 | 0.00 | 69 | 1012.9 |
| 20260510002552 | 15 | 0 | 0.0 | 0.0 | 0.00 | 0.00 | 0.00 | 67 | 1012.9 |
| 20260510002051 | 15 | 0 | 0.0 | 0.0 | 0.00 | 0.00 | 0.00 | 64 | 1012.9 |
| 20260510001551 | 16 | 0 | 0.0 | 0.0 | 0.00 | 0.00 | 0.00 | 62 | 1013.0 |
| 20260510001051 | 16 | 262 | 0.0 | 1.6 | 0.00 | 0.00 | 0.00 | 62 | 1013.0 |
| 20260510000551 | 16 | 285 | 1.6 | 3.2 | 0.00 | 0.00 | 0.00 | 60 | 1012.8 |
| 20260510000052 | 16 | 283 | 3.2 | 8.0 | 0.00 | 0.00 | 0.00 | 60 | 1012.8 |
| 20260509235552 | 16 | 285 | 1.6 | 3.2 | 0.00 | 0.00 | 0.00 | 59 | 1012.8 |
| 20260509235051 | 16 | 271 | 4.8 | 6.4 | 0.00 | 0.00 | 0.00 | 59 | 1012.5 |
| 20260509234553 | 17 | 251 | 3.2 | 4.8 | 0.00 | 0.00 | 0.00 | 58 | 1012.5 |
| 20260509234053 | 17 | 313 | 3.2 | 6.4 | 0.00 | 0.00 | 0.00 | 58 | 1012.4 |
| 20260509233551 | 17 | 241 | 1.6 | 3.2 | 0.00 | 0.00 | 0.00 | 58 | 1012.4 |
| 20260509233052 | 17 | 296 | 4.8 | 6.4 | 0.00 | 0.00 | 0.00 | 57 | 1012.4 |
| 20260509232551 | 18 | 267 | 1.6 | 3.2 | 0.00 | 0.00 | 0.00 | 56 | 1012.4 |
| 20260509232051 | 18 | 283 | 3.2 | 4.8 | 0.00 | 0.00 | 0.00 | 56 | 1012.4 |
| 20260509231551 | 18 | 263 | 3.2 | 6.4 | 0.00 | 0.00 | 0.00 | 55 | 1012.3 |
| 20260509231052 | 18 | 283 | 3.2 | 4.8 | 0.00 | 0.00 | 0.00 | 55 | 1012.3 |
| 20260509230552 | 18 | 242 | 4.8 | 8.0 | 0.00 | 0.00 | 0.00 | 55 | 1012.3 |
| 20260509230052 | 18 | 256 | 6.4 | 8.0 | 0.00 | 0.00 | 0.00 | 54 | 1012.3 |
| 20260509225551 | 18 | 359 | 3.2 | 6.4 | 0.00 | 0.00 | 0.00 | 54 | 1012.3 |
| 20260509225051 | 18 | 262 | 1.6 | 3.2 | 0.00 | 0.00 | 0.00 | 55 | 1012.2 |
| 20260509224552 | 18 | 288 | 3.2 | 4.8 | 0.00 | 0.00 | 0.00 | 54 | 1012.3 |
| 20260509224052 | 18 | 255 | 4.8 | 8.0 | 0.00 | 0.00 | 0.00 | 55 | 1012.4 |
| 20260509223552 | 18 | 282 | 6.4 | 9.7 | 0.00 | 0.00 | 0.00 | 55 | 1012.5 |
| 20260509223051 | 18 | 260 | 6.4 | 11.3 | 0.00 | 0.00 | 0.00 | 55 | 1012.4 |
| 20260509222551 | 18 | 232 | 4.8 | 9.7 | 0.00 | 0.00 | 0.00 | 55 | 1012.4 |
| 20260509222053 | 18 | 273 | 8.0 | 12.9 | 0.00 | 0.00 | 0.00 | 55 | 1012.5 |
| 20260509221552 | 18 | 265 | 8.0 | 9.7 | 0.00 | 0.00 | 0.00 | 54 | 1012.5 |
| 20260509221051 | 19 | 252 | 6.4 | 12.9 | 0.00 | 0.00 | 0.00 | 53 | 1012.5 |
| 20260509220553 | 19 | 263 | 6.4 | 11.3 | 0.00 | 0.00 | 0.00 | 53 | 1012.5 |
| 20260509220053 | 18 | 230 | 1.6 | 3.2 | 0.00 | 0.00 | 0.00 | 53 | 1012.5 |
| 20260509215551 | 18 | 279 | 3.2 | 6.4 | 0.00 | 0.00 | 0.00 | 53 | 1012.4 |
| 20260509215051 | 18 | 227 | 4.8 | 9.7 | 0.00 | 0.00 | 0.00 | 54 | 1012.4 |
| 20260509214554 | 18 | 243 | 6.4 | 11.3 | 0.00 | 0.00 | 0.00 | 53 | 1012.4 |
| 20260509214052 | 19 | 274 | 6.4 | 14.5 | 0.00 | 0.00 | 0.00 | 54 | 1012.5 |
| 20260509213552 | 18 | 237 | 3.2 | 4.8 | 0.00 | 0.00 | 0.00 | 53 | 1012.4 |
| 20260509213053 | 18 | 279 | 6.4 | 9.7 | 0.00 | 0.00 | 0.00 | 54 | 1012.4 |
| 20260509212553 | 18 | 261 | 11.3 | 17.7 | 0.00 | 0.00 | 0.00 | 54 | 1012.4 |
| 20260509212051 | 18 | 290 | 8.0 | 14.5 | 0.00 | 0.00 | 0.00 | 55 | 1012.5 |
| 20260509211551 | 18 | 320 | 3.2 | 8.0 | 0.00 | 0.00 | 0.00 | 55 | 1012.4 |
| 20260509211054 | 18 | 248 | 6.4 | 11.3 | 0.00 | 0.00 | 0.00 | 54 | 1012.3 |
| 20260509210554 | 18 | 233 | 9.7 | 14.5 | 0.00 | 0.00 | 0.00 | 53 | 1012.2 |
| 20260509210053 | 18 | 274 | 9.7 | 14.5 | 0.00 | 0.00 | 0.00 | 53 | 1012.2 |
| 20260509205552 | 18 | 233 | 3.2 | 6.4 | 0.00 | 0.00 | 0.00 | 54 | 1012.3 |
| 20260509205051 | 17 | 308 | 4.8 | 8.0 | 0.00 | 0.00 | 0.00 | 55 | 1012.2 |
| 20260509204552 | 17 | 235 | 8.0 | 12.9 | 0.00 | 0.00 | 0.00 | 54 | 1012.2 |
| 20260509204053 | 17 | 283 | 6.4 | 9.7 | 0.00 | 0.00 | 0.00 | 55 | 1012.2 |
| 20260509203551 | 17 | 269 | 8.0 | 11.3 | 0.00 | 0.00 | 0.00 | 54 | 1012.2 |
| 20260509203052 | 17 | 238 | 6.4 | 11.3 | 0.00 | 0.00 | 0.00 | 54 | 1012.1 |
| 20260509202553 | 17 | 254 | 4.8 | 6.4 | 0.00 | 0.00 | 0.00 | 54 | 1012.1 |
| 20260509202052 | 17 | 272 | 6.4 | 9.7 | 0.00 | 0.00 | 0.00 | 53 | 1012.0 |
| 20260509201551 | 18 | 249 | 6.4 | 9.7 | 0.00 | 0.00 | 0.00 | 53 | 1011.9 |
| 20260509201051 | 18 | 241 | 4.8 | 6.4 | 0.00 | 0.00 | 0.00 | 54 | 1011.8 |
| 20260509200553 | 18 | 271 | 6.4 | 9.7 | 0.00 | 0.00 | 0.00 | 54 | 1011.8 |
| 20260509200051 | 17 | 294 | 4.8 | 6.4 | 0.00 | 0.00 | 0.00 | 55 | 1011.8 |
| 20260509195553 | 18 | 272 | 6.4 | 11.3 | 0.00 | 0.00 | 0.00 | 54 | 1011.8 |
| 20260509195053 | 17 | 262 | 4.8 | 6.4 | 0.00 | 0.00 | 0.00 | 55 | 1011.9 |
| 20260509194551 | 17 | 279 | 6.4 | 9.7 | 0.00 | 0.00 | 0.00 | 54 | 1011.8 |
| 20260509194051 | 17 | 284 | 8.0 | 14.5 | 0.00 | 0.00 | 0.00 | 55 | 1011.9 |
| 20260509193552 | 17 | 258 | 6.4 | 12.9 | 0.00 | 0.00 | 0.00 | 54 | 1011.8 |
| 20260509193054 | 18 | 251 | 6.4 | 11.3 | 0.00 | 0.00 | 0.00 | 54 | 1011.8 |
| 20260509192551 | 18 | 204 | 4.8 | 8.0 | 0.00 | 0.00 | 0.00 | 54 | 1011.8 |
| 20260509192051 | 17 | 225 | 11.3 | 16.1 | 0.00 | 0.00 | 0.00 | 53 | 1011.9 |
| 20260509191552 | 17 | 257 | 8.0 | 11.3 | 0.00 | 0.00 | 0.00 | 54 | 1011.9 |
| 20260509191051 | 17 | 267 | 12.9 | 19.3 | 0.00 | 0.00 | 0.00 | 53 | 1011.9 |
| 20260509190551 | 17 | 236 | 9.7 | 12.9 | 0.00 | 0.00 | 0.00 | 51 | 1011.9 |
| 20260509190054 | 17 | 348 | 8.0 | 11.3 | 0.00 | 0.00 | 0.00 | 52 | 1011.7 |
| 20260509185551 | 17 | 299 | 4.8 | 9.7 | 0.00 | 0.00 | 0.00 | 51 | 1011.7 |
| 20260509185052 | 17 | 259 | 8.0 | 11.3 | 0.00 | 0.00 | 0.00 | 51 | 1011.8 |
| 20260509184552 | 17 | 222 | 9.7 | 17.7 | 0.00 | 0.00 | 0.00 | 50 | 1011.7 |
| 20260509184051 | 18 | 256 | 6.4 | 8.0 | 0.00 | 0.00 | 0.00 | 49 | 1011.8 |
| 20260509183552 | 18 | 281 | 9.7 | 16.1 | 0.00 | 0.00 | 0.00 | 50 | 1011.8 |
| 20260509183052 | 18 | 272 | 11.3 | 12.9 | 0.00 | 0.00 | 0.00 | 50 | 1011.9 |
| 20260509182555 | 18 | 278 | 9.7 | 12.9 | 0.00 | 0.00 | 0.00 | 50 | 1011.9 |
| 20260509182052 | 18 | 277 | 9.7 | 16.1 | 0.00 | 0.00 | 0.00 | 52 | 1011.8 |
| 20260509181553 | 18 | 271 | 12.9 | 16.1 | 0.00 | 0.00 | 0.00 | 52 | 1011.8 |
| 20260509181053 | 17 | 270 | 12.9 | 16.1 | 0.00 | 0.00 | 0.00 | 52 | 1011.8 |
| 20260509180553 | 17 | 272 | 12.9 | 20.9 | 0.00 | 0.00 | 0.00 | 51 | 1011.8 |
| 20260509180055 | 17 | 268 | 9.7 | 19.3 | 0.00 | 0.00 | 0.00 | 53 | 1011.8 |
| 20260509175551 | 17 | 262 | 9.7 | 12.9 | 0.00 | 0.00 | 0.00 | 53 | 1011.8 |
| 20260509175053 | 17 | 259 | 8.0 | 12.9 | 0.00 | 0.00 | 0.00 | 54 | 1011.8 |
| 20260509174552 | 17 | 284 | 11.3 | 17.7 | 0.00 | 0.00 | 0.00 | 52 | 1011.7 |
| 20260509174052 | 17 | 254 | 9.7 | 16.1 | 0.00 | 0.00 | 0.00 | 52 | 1011.8 |
| 20260509173553 | 17 | 255 | 9.7 | 19.3 | 0.00 | 0.00 | 0.00 | 52 | 1011.7 |
| 20260509173053 | 17 | 260 | 11.3 | 14.5 | 0.00 | 0.00 | 0.00 | 50 | 1011.8 |
| 20260509172552 | 17 | 274 | 12.9 | 17.7 | 0.00 | 0.00 | 0.00 | 50 | 1011.9 |
| 20260509172054 | 17 | 228 | 9.7 | 12.9 | 0.00 | 0.00 | 0.00 | 49 | 1011.9 |
| 20260509171553 | 17 | 280 | 8.0 | 11.3 | 0.00 | 0.00 | 0.00 | 52 | 1011.9 |
| 20260509171055 | 17 | 232 | 8.0 | 12.9 | 0.00 | 0.00 | 0.00 | 52 | 1012.0 |
| 20260509170552 | 17 | 256 | 8.0 | 14.5 | 0.00 | 0.00 | 0.00 | 54 | 1012.1 |
| 20260509170053 | 17 | 275 | 9.7 | 17.7 | 0.00 | 0.00 | 0.00 | 53 | 1012.1 |
| 20260509165552 | 17 | 254 | 6.4 | 11.3 | 0.00 | 0.00 | 0.00 | 53 | 1012.1 |
| 20260509165052 | 17 | 244 | 9.7 | 16.1 | 0.00 | 0.00 | 0.00 | 53 | 1012.2 |
| 20260509164552 | 17 | 266 | 6.4 | 11.3 | 0.00 | 0.00 | 0.00 | 53 | 1012.3 |